Hourly Data Report for October 03, 2017

All times are specified in Local Standard Time (LST). Add 1 hour to adjust for Daylight Saving Time where and when it is observed.

FORT NELSON A
BRITISH COLUMBIA

58°50'11.000" N
122°35'49.000" W
381.90 m
1192946
71945
YYE

Download Data

Hourly Data (October 2017)
Hourly Data Report for October 3, 2017
Temp Definition
°C
Dew Point Temp Definition
°C
Rel Hum Definition
%
Wind Dir Definition
10's deg

Wind Spd Definition
km/h
Visibility Definition
km
Stn Press Definition
kPa
Hmdx Definition


Wind Chill Definition


Weather Definition


TIME
00:00 Legend Double Dagger 0.8 -3.1 75 16 13 24.1 97.46     LegendNANA
01:00 Legend Double Dagger 1.0 -2.9 75 15 14 24.1 97.38     Mainly Clear
02:00 Legend Double Dagger 0.4 -2.7 80 18 8 24.1 97.32     LegendNANA
03:00 Legend Double Dagger 0.2 -3.0 79 19 10 24.1 97.25     LegendNANA
04:00 Legend Double Dagger -0.8 -2.9 86 18 10 24.1 97.19   -4 Mostly Cloudy
05:00 Legend Double Dagger -0.4 -2.7 85 17 8 24.1 97.13   -3 LegendNANA
06:00 Legend Double Dagger -0.7 -2.7 86 18 9 24.1 97.17   -4 LegendNANA
07:00 Legend Double Dagger -0.6 -2.4 87 20 6 24.1 97.19   -3 Mostly Cloudy
08:00 Legend Double Dagger -0.1 -2.3 85 15 4 24.1 97.26   -1 LegendNANA
09:00 Legend Double Dagger 2.2 -1.7 76 14 5 24.1 97.27     LegendNANA
10:00 Legend Double Dagger 4.4 -1.5 66 15 7 48.3 97.29     Mainly Clear
11:00 Legend Double Dagger 8.3 -0.6 54 15 6 24.1 97.28     LegendNANA
12:00 Legend Double Dagger 9.9 -0.6 48 19 5 32.2 97.33     LegendNANA
13:00 Legend Double Dagger 13.5 0.1 40 14 10 48.3 97.33     Mostly Cloudy
14:00 Legend Double Dagger 15.7 0.6 36 14 5 48.3 97.34     LegendNANA
15:00 Legend Double Dagger 17.6 1.4 33 33 7 48.3 97.34     LegendNANA
16:00 Legend Double Dagger 17.2 1.6 35 34 11 48.3 97.40     Mostly Cloudy
17:00 Legend Double Dagger 15.6 2.4 41 35 9 32.2 97.41     LegendNANA
18:00 Legend Double Dagger 12.1 3.5 56 34 8 24.1 97.43     LegendNANA
19:00 Legend Double Dagger 12.1 3.2 54 24 7 24.1 97.48     Mostly Cloudy
20:00 Legend Double Dagger 9.9 3.9 66 25 4 24.1 97.49     LegendNANA
21:00 Legend Double Dagger 7.8 3.5 74 27 5 24.1 97.51     LegendNANA
22:00 Legend Double Dagger 7.4 3.1 74 9 5 24.1 97.52     Mainly Clear
23:00 Legend Double Dagger 6.5 2.5 76 36 1 24.1 97.53     LegendNANA

Notes on Data Quality.

Legend

  • E = Estimated
  • M = Missing
  • NA = Not Available
  • ‡ = Partner data that is not subject to review by the National Climate Archives
Date modified: